Iowa City, IA

10:46 AM CDT on May 25, 2020 (GMT -0500)
Iowa City Municipal

Weather History for KIOW - April, 2020

Change the Weather History Date:

Thursday, April 9, 2020

  Actual Average Record
Temperature  
Mean Temperature 42 °F -  
Max Temperature 51 °F - 79 °F (2017)
Min Temperature 34 °F - 17 °F (1997)
Degree Days  
Heating Degree Days 23    
Moisture  
Dew Point 23 °F    
Average Humidity 49    
Maximum Humidity 73    
Minimum Humidity 30    
Precipitation  
Precipitation 0.00 in - 1.06 in (1973)
Sea Level Pressure  
Sea Level Pressure 29.98 in    
Wind  
Wind Speed 13 mph (WNW)    
Max Wind Speed 30 mph    
Max Gust Speed 46 mph    
Visibility 10 miles    
Events      
T = Trace of Precipitation, MM = Missing Value Source: NWS Daily Summary

Daily Weather History Graph

Daily Weather History Graph

Search for Another Location

Airport or City:

Astronomy

Apr. 09, 2020 Rise Set
Actual Time 6:34 AM CDT 7:40 PM CDT
Civil Twilight 6:06 AM CDT 8:09 PM CDT
Nautical Twilight 5:32 AM CDT 8:43 PM CDT
Astronomical Twilight 4:57 AM CDT 9:19 PM CDT
Moon 9:55 PM CDT (4/9) 7:48 AM CDT (4/9)
Length of Visible Light 14h 02m
Length of Day
13h 05m
Waning Gibbous, 96% of the Moon is Illuminated
Apr 9
Waning Gibbous
Apr 14
Last Quarter
Apr 22
New
Apr 30
First Quarter
May 7
Full

Hourly Weather History & Observations

Time (CDT) Temp. Windchill Dew Point Humidity Pressure Visibility Wind Dir Wind Speed Gust Speed Precip Events Conditions
12:52 AM 45.0 °F 39.7 °F 27.0 °F 49% 29.91 in 10.0 mi NW 10.4 mph - N/A   Clear
1:52 AM 44.1 °F 39.0 °F 27.0 °F 51% 29.93 in 10.0 mi WNW 9.2 mph - N/A   Clear
2:52 AM 43.0 °F 37.7 °F 27.0 °F 53% 29.95 in 10.0 mi WNW 9.2 mph - N/A   Mostly Cloudy
3:52 AM 39.9 °F 34.5 °F 26.1 °F 58% 29.95 in 10.0 mi WNW 8.1 mph - N/A   Clear
5:52 AM 34.0 °F 28.0 °F 26.1 °F 73% 29.96 in 10.0 mi West 6.9 mph - N/A   Clear
6:52 AM 35.1 °F 29.3 °F 26.1 °F 70% 29.96 in 10.0 mi West 6.9 mph - N/A   Clear
7:52 AM 37.9 °F 32.1 °F 28.0 °F 68% 29.95 in 10.0 mi West 8.1 mph - N/A   Clear
8:52 AM 42.1 °F 36.1 °F 28.9 °F 60% 29.93 in 10.0 mi West 10.4 mph - N/A   Clear
9:52 AM 46.9 °F - 27.0 °F 46% 29.92 in 10.0 mi West 16.1 mph - N/A   Clear
10:52 AM 50.0 °F - 21.9 °F 33% 29.91 in 10.0 mi WNW 20.7 mph 29.9 mph N/A   Clear
11:52 AM 46.9 °F - 21.9 °F 37% 29.92 in 10.0 mi NW 18.4 mph 39.1 mph N/A   Overcast
1:52 PM 45.0 °F 35.2 °F 28.0 °F 52% 29.93 in 10.0 mi WNW 29.9 mph 40.3 mph 0.00 in   Overcast
2:52 PM 46.9 °F - 21.9 °F 37% 29.94 in 10.0 mi WNW 27.6 mph 41.4 mph 0.00 in   Overcast
3:52 PM 45.0 °F 35.6 °F 16.0 °F 31% 29.96 in 10.0 mi NW 27.6 mph 46.0 mph N/A   Mostly Cloudy
5:52 PM 43.0 °F 34.0 °F 12.9 °F 30% 30.00 in 10.0 mi NW 21.9 mph 41.4 mph N/A   Scattered Clouds
7:52 PM 39.9 °F 30.5 °F 16.0 °F 38% 30.05 in 10.0 mi NW 19.6 mph 31.1 mph N/A   Scattered Clouds
8:52 PM 39.0 °F 31.0 °F 17.1 °F 41% 30.07 in 10.0 mi NW 13.8 mph 23.0 mph N/A   Partly Cloudy
9:52 PM 37.9 °F 29.6 °F 17.1 °F 43% 30.10 in 10.0 mi NW 13.8 mph 20.7 mph N/A   Clear
10:52 PM 36.0 °F 27.5 °F 19.0 °F 50% 30.11 in 10.0 mi WNW 12.7 mph 21.9 mph N/A   Clear
11:52 PM 35.1 °F 26.4 °F 19.0 °F 52% 30.12 in 10.0 mi WNW 12.7 mph 20.7 mph N/A   Clear